Location: Leiter
(44.7178°N, 106.2687°W)
Time: 02:44:33
(UTC+00:00)

ESTCUBE 1 - Pass Details

Date: 26 June 2022
Orbit: 646 x 657 km, 97.9° (Epoch: 13 August)

Event Time Altitude Azimuth Distance (km) Brightness Sun altitude
Exits shadow 06:15:34 17° 238° (WSW) 1,636 ? -20.9°
Maximum altitude 06:17:14 21° 267° (W) 1,473 ? -20.9°
Drops below altitude 10° 06:20:36 10° 316° (NW) 2,054 ? -21.1°
Sets 06:23:19 0° 333° (NNW) 2,971 ? -21.2°
